AFR2N LFPG-KJFK

Flight info

Callsign AFR2N
Flight time N/A
Altitude 34000
Route ELCOB UT300 SENLO DCT JSY DCT LIZAD DCT ARKIL DCT LIMRI/M083F360 DCT 52N020W 52N030W 51N040W 49N050W DCT JOOPY/N0478F360 N328A TUSKY DCT PLYMM PARCH4
Aircraft B77W/H-SDE1E2E3FGHIJ2J3J4J5M1RWXY/LB1D1

Departure

Time 2026-05-09 06:39
Airport Charles de Gaulle International Airport (LFPG)

Arrival

Time N/A
Airport John F. Kennedy International Airport (KJFK)
Time Latitude Longitude Altitude Speed Heading
2026-05-09 06:01 49.00700 2.59149 359 ft 0 kts 265°
2026-05-09 06:20 49.00700 2.59155 359 ft 2 kts 265°
2026-05-09 06:20 49.00702 2.59180 359 ft 2 kts 262°
2026-05-09 06:21 49.00705 2.59204 361 ft 2 kts 256°
2026-05-09 06:21 49.00709 2.59229 367 ft 2 kts 250°
2026-05-09 06:21 49.00716 2.59251 368 ft 2 kts 238°
2026-05-09 06:21 49.00726 2.59271 368 ft 2 kts 217°
2026-05-09 06:22 49.00735 2.59280 368 ft 2 kts 199°
2026-05-09 06:22 49.00750 2.59285 365 ft 1 kts 177°
2026-05-09 06:22 49.00753 2.59284 367 ft 0 kts 176°
2026-05-09 06:26 49.00717 2.59288 367 ft 12 kts 176°
2026-05-09 06:27 49.00653 2.59308 365 ft 8 kts 149°
2026-05-09 06:27 49.00627 2.59374 367 ft 8 kts 96°
2026-05-09 06:27 49.00602 2.59437 365 ft 8 kts 160°
2026-05-09 06:27 49.00547 2.59444 364 ft 8 kts 176°
2026-05-09 06:28 49.00493 2.59450 365 ft 8 kts 175°
2026-05-09 06:28 49.00437 2.59457 361 ft 9 kts 175°
2026-05-09 06:28 49.00370 2.59465 359 ft 11 kts 175°
2026-05-09 06:28 49.00289 2.59475 360 ft 13 kts 175°
2026-05-09 06:29 49.00196 2.59487 364 ft 14 kts 175°
2026-05-09 06:29 49.00103 2.59492 365 ft 11 kts 195°
2026-05-09 06:29 49.00067 2.59395 365 ft 11 kts 267°
2026-05-09 06:29 49.00063 2.59276 365 ft 11 kts 267°
2026-05-09 06:30 49.00056 2.59136 362 ft 16 kts 265°
2026-05-09 06:30 49.00045 2.58924 361 ft 24 kts 265°
2026-05-09 06:30 49.00030 2.58652 364 ft 27 kts 265°
2026-05-09 06:30 49.00015 2.58372 365 ft 26 kts 265°
2026-05-09 06:31 48.99985 2.57813 365 ft 26 kts 265°
2026-05-09 06:31 48.99971 2.57533 359 ft 26 kts 265°
2026-05-09 06:31 48.99956 2.57254 359 ft 26 kts 265°
2026-05-09 06:32 48.99948 2.57121 365 ft 10 kts 265°
2026-05-09 06:32 48.99922 2.57020 368 ft 11 kts 219°
2026-05-09 06:32 48.99854 2.56977 368 ft 11 kts 229°
2026-05-09 06:33 48.99832 2.56631 359 ft 22 kts 265°
2026-05-09 06:33 48.99818 2.56366 359 ft 27 kts 265°
2026-05-09 06:33 48.99805 2.56128 360 ft 15 kts 265°
2026-05-09 06:34 48.99767 2.55812 367 ft 15 kts 245°
2026-05-09 06:34 48.99748 2.55654 359 ft 15 kts 264°
2026-05-09 06:34 48.99740 2.55491 359 ft 15 kts 266°
2026-05-09 06:34 48.99731 2.55329 361 ft 15 kts 265°
2026-05-09 06:35 48.99723 2.55173 363 ft 8 kts 267°
2026-05-09 06:35 48.99702 2.55105 368 ft 8 kts 202°
2026-05-09 06:35 48.99676 2.55119 368 ft 0 kts 136°
2026-05-09 06:37 48.99674 2.55121 368 ft 2 kts 134°
2026-05-09 06:37 48.99648 2.55179 363 ft 10 kts 120°
2026-05-09 06:37 48.99616 2.55277 364 ft 10 kts 116°
2026-05-09 06:37 48.99584 2.55377 366 ft 11 kts 111°
2026-05-09 06:38 48.99580 2.55440 361 ft 0 kts 88°
2026-05-09 06:38 48.99581 2.55480 360 ft 15 kts 86°
2026-05-09 06:38 48.99612 2.56014 361 ft 87 kts 85°
2026-05-09 06:38 48.99677 2.57263 357 ft 148 kts 85°
2026-05-09 06:39 48.99768 2.59070 409 ft 187 kts 84°
2026-05-09 06:39 48.99905 2.60967 1124 ft 178 kts 82°
2026-05-09 06:39 49.00047 2.62911 1632 ft 191 kts 84°
2026-05-09 06:39 49.00164 2.64911 2229 ft 192 kts 86°
2026-05-09 06:40 49.00277 2.67018 2588 ft 208 kts 86°
2026-05-09 06:40 49.00399 2.69326 2842 ft 230 kts 87°
2026-05-09 06:40 49.00515 2.71881 3148 ft 250 kts 87°
2026-05-09 06:40 49.00617 2.74541 3860 ft 253 kts 88°
2026-05-09 06:41 49.00734 2.77251 4502 ft 260 kts 89°
2026-05-09 06:41 49.00583 2.80002 4966 ft 264 kts 105°
2026-05-09 06:41 49.00037 2.82674 5429 ft 265 kts 107°
2026-05-09 06:41 48.99748 2.85474 6082 ft 270 kts 95°
2026-05-09 06:42 48.99639 2.88303 6896 ft 267 kts 96°
2026-05-09 06:42 48.99421 2.91161 7328 ft 281 kts 101°
2026-05-09 06:42 48.99088 2.94124 7929 ft 283 kts 101°
2026-05-09 06:42 48.98692 2.97058 8566 ft 285 kts 113°
2026-05-09 06:43 48.97569 2.99531 9067 ft 285 kts 144°
2026-05-09 06:43 48.95829 3.00837 9815 ft 278 kts 169°
2026-05-09 06:43 48.93902 3.00947 10304 ft 282 kts 193°
2026-05-09 06:43 48.92053 2.99806 10515 ft 300 kts 217°
2026-05-09 06:44 48.90600 2.97424 10726 ft 315 kts 237°
2026-05-09 06:44 48.89608 2.94432 10976 ft 330 kts 251°
2026-05-09 06:44 48.88977 2.90946 11125 ft 349 kts 256°
2026-05-09 06:44 48.88431 2.87276 11629 ft 362 kts 257°
2026-05-09 06:45 48.87876 2.83550 12346 ft 369 kts 256°
2026-05-09 06:45 48.87271 2.79736 13227 ft 374 kts 255°
2026-05-09 06:45 48.86628 2.75889 14107 ft 378 kts 255°
2026-05-09 06:45 48.85955 2.72008 14872 ft 383 kts 254°
2026-05-09 06:46 48.85259 2.68075 15635 ft 388 kts 254°
2026-05-09 06:46 48.84549 2.64103 16402 ft 393 kts 253°
2026-05-09 06:46 48.83825 2.60068 17150 ft 399 kts 253°
2026-05-09 06:46 48.83090 2.55986 17891 ft 404 kts 253°
2026-05-09 06:47 48.82345 2.51845 18611 ft 409 kts 253°
2026-05-09 06:47 48.81591 2.47662 19261 ft 413 kts 253°
2026-05-09 06:47 48.80826 2.43432 19924 ft 417 kts 253°
2026-05-09 06:47 48.80095 2.39150 20568 ft 422 kts 257°
2026-05-09 06:48 48.79857 2.34682 21080 ft 430 kts 268°
2026-05-09 06:48 48.79900 2.30117 21657 ft 436 kts 269°
2026-05-09 06:48 48.79977 2.25495 22282 ft 440 kts 269°
2026-05-09 06:48 48.80047 2.20836 22901 ft 444 kts 269°
2026-05-09 06:49 48.80097 2.16125 23514 ft 449 kts 268°
2026-05-09 06:49 48.80124 2.11375 24032 ft 453 kts 268°
2026-05-09 06:49 48.80136 2.06579 24506 ft 457 kts 268°
2026-05-09 06:49 48.80137 2.01737 24986 ft 461 kts 267°
2026-05-09 06:50 48.80132 1.96855 25454 ft 465 kts 267°
2026-05-09 06:50 48.80123 1.91935 25904 ft 469 kts 267°
2026-05-09 06:50 48.80112 1.86967 26362 ft 473 kts 267°
2026-05-09 06:50 48.80099 1.81960 26805 ft 476 kts 267°
2026-05-09 06:51 48.80084 1.76986 27230 ft 480 kts 267°
2026-05-09 06:51 48.80068 1.71897 27659 ft 484 kts 266°
2026-05-09 06:51 48.80049 1.66703 28028 ft 488 kts 266°
2026-05-09 06:51 48.80028 1.61600 28415 ft 492 kts 266°
2026-05-09 06:52 48.80005 1.56391 28793 ft 496 kts 266°
2026-05-09 06:52 48.79979 1.51151 29139 ft 499 kts 266°
2026-05-09 06:52 48.79951 1.45879 29485 ft 502 kts 266°
2026-05-09 06:52 48.79920 1.40581 29911 ft 503 kts 266°
2026-05-09 06:53 48.79888 1.35277 30368 ft 502 kts 266°
2026-05-09 06:53 48.79853 1.30004 30861 ft 500 kts 265°
2026-05-09 06:53 48.79816 1.24722 31227 ft 501 kts 265°
2026-05-09 06:53 48.79776 1.19444 31599 ft 501 kts 265°
2026-05-09 06:54 48.79733 1.14173 32004 ft 500 kts 265°
2026-05-09 06:54 48.79688 1.08906 32423 ft 498 kts 265°
2026-05-09 06:54 48.79641 1.03653 32823 ft 498 kts 265°
2026-05-09 06:54 48.79591 0.98415 33199 ft 497 kts 265°
2026-05-09 06:55 48.79539 0.93184 33565 ft 496 kts 265°
2026-05-09 06:55 48.79484 0.87950 33934 ft 496 kts 265°
2026-05-09 06:55 48.79365 0.77410 34037 ft 501 kts 264°
2026-05-09 06:56 48.79243 0.66891 34033 ft 495 kts 264°
2026-05-09 06:56 48.79132 0.56486 34039 ft 493 kts 268°
2026-05-09 06:57 48.79654 0.51315 34030 ft 501 kts 285°
2026-05-09 06:57 48.81142 0.46526 34054 ft 504 kts 298°
2026-05-09 06:57 48.84715 0.37219 34050 ft 516 kts 297°
2026-05-09 06:58 48.88207 0.27695 34047 ft 516 kts 296°
2026-05-09 06:58 48.91609 0.18176 34042 ft 515 kts 295°
2026-05-09 06:59 48.95015 0.08599 34046 ft 514 kts 295°
2026-05-09 06:59 48.98412 -0.00962 34061 ft 513 kts 295°
2026-05-09 07:00 49.01791 -0.10498 34048 ft 510 kts 295°
2026-05-09 07:00 49.05053 -0.20059 34041 ft 506 kts 289°
2026-05-09 07:01 49.06906 -0.30260 34053 ft 497 kts 274°
2026-05-09 07:01 49.07281 -0.40682 34058 ft 491 kts 266°
2026-05-09 07:02 49.07382 -0.51125 34056 ft 493 kts 266°
2026-05-09 07:02 49.07524 -0.61605 34053 ft 495 kts 267°
2026-05-09 07:03 49.07689 -0.72121 34054 ft 497 kts 267°
2026-05-09 07:03 49.07850 -0.82662 34052 ft 497 kts 266°
2026-05-09 07:04 49.07997 -0.93211 34060 ft 498 kts 266°
2026-05-09 07:04 49.08135 -1.03776 34041 ft 498 kts 266°
2026-05-09 07:05 49.08288 -1.14337 34038 ft 499 kts 269°
2026-05-09 07:05 49.09322 -1.24867 34033 ft 506 kts 280°
2026-05-09 07:06 49.11072 -1.35260 34067 ft 505 kts 281°
2026-05-09 07:06 49.12799 -1.45654 34037 ft 505 kts 280°
2026-05-09 07:07 49.14473 -1.56044 34031 ft 503 kts 280°
2026-05-09 07:07 49.15842 -1.64672 34027 ft 502 kts 280°
2026-05-09 07:08 49.17479 -1.75036 34032 ft 501 kts 279°
2026-05-09 07:08 49.19107 -1.85394 34027 ft 501 kts 280°
2026-05-09 07:09 49.20726 -1.95751 34044 ft 500 kts 279°
2026-05-09 07:09 49.22338 -2.06102 34042 ft 501 kts 280°
2026-05-09 07:10 49.24077 -2.16426 34029 ft 502 kts 281°
2026-05-09 07:10 49.25877 -2.26750 34047 ft 502 kts 281°
2026-05-09 07:11 49.27658 -2.37094 34047 ft 502 kts 281°
2026-05-09 07:11 49.29413 -2.47456 34042 ft 503 kts 281°
2026-05-09 07:12 49.31153 -2.57827 34046 ft 502 kts 281°
2026-05-09 07:12 49.32884 -2.68201 34067 ft 502 kts 281°
2026-05-09 07:13 49.34606 -2.78584 34052 ft 503 kts 281°
2026-05-09 07:13 49.36321 -2.88979 34023 ft 502 kts 281°
2026-05-09 07:14 49.38025 -2.99371 34025 ft 502 kts 281°
2026-05-09 07:14 49.39719 -3.09771 34035 ft 502 kts 281°
2026-05-09 07:15 49.41402 -3.20170 34037 ft 502 kts 281°
2026-05-09 07:15 49.43065 -3.30506 34031 ft 502 kts 281°
2026-05-09 07:16 49.44731 -3.40925 34014 ft 502 kts 280°
2026-05-09 07:16 49.46388 -3.51352 34024 ft 502 kts 280°
2026-05-09 07:17 49.48035 -3.61787 34045 ft 502 kts 280°
2026-05-09 07:17 49.49674 -3.72235 34037 ft 503 kts 280°
2026-05-09 07:18 49.51305 -3.82695 34033 ft 503 kts 280°
2026-05-09 07:18 49.52925 -3.93154 34027 ft 502 kts 280°
2026-05-09 07:19 49.54536 -4.03622 34030 ft 502 kts 280°
2026-05-09 07:19 49.56136 -4.14092 34024 ft 502 kts 280°
2026-05-09 07:20 49.57729 -4.24572 34021 ft 502 kts 280°
2026-05-09 07:20 49.59619 -4.34940 34021 ft 505 kts 288°
2026-05-09 07:21 49.62575 -4.44805 34032 ft 507 kts 294°
2026-05-09 07:21 49.65687 -4.54559 34040 ft 507 kts 294°
2026-05-09 07:22 49.68760 -4.64335 34020 ft 506 kts 293°
2026-05-09 07:22 49.71791 -4.74123 34023 ft 504 kts 293°
2026-05-09 07:23 49.74798 -4.83902 34024 ft 503 kts 293°
2026-05-09 07:23 49.77794 -4.93685 34029 ft 503 kts 293°
2026-05-09 07:24 49.80782 -5.03473 34031 ft 503 kts 293°
2026-05-09 07:24 49.83761 -5.13266 34027 ft 503 kts 293°
2026-05-09 07:25 49.86733 -5.23078 34023 ft 503 kts 292°
2026-05-09 07:25 49.89697 -5.32902 34029 ft 503 kts 292°
2026-05-09 07:26 49.92636 -5.42681 34023 ft 503 kts 292°
2026-05-09 07:26 49.95605 -5.52604 34033 ft 503 kts 292°
2026-05-09 07:27 49.98527 -5.62406 34038 ft 503 kts 292°
2026-05-09 07:27 50.01461 -5.72289 34020 ft 503 kts 292°
2026-05-09 07:28 50.04385 -5.82178 34020 ft 503 kts 292°
2026-05-09 07:28 50.07293 -5.92052 34022 ft 502 kts 292°
2026-05-09 07:29 50.10189 -6.01928 34034 ft 501 kts 292°
2026-05-09 07:29 50.13073 -6.11806 34030 ft 500 kts 292°
2026-05-09 07:30 50.15946 -6.21682 34033 ft 500 kts 292°
2026-05-09 07:30 50.18809 -6.31568 34042 ft 500 kts 292°
2026-05-09 07:31 50.21665 -6.41468 34042 ft 500 kts 292°
2026-05-09 07:31 50.24510 -6.51374 34050 ft 500 kts 292°
2026-05-09 07:32 50.27348 -6.61296 34044 ft 500 kts 291°
2026-05-09 07:32 50.30175 -6.71220 34041 ft 499 kts 291°
2026-05-09 07:33 50.34396 -6.86114 34048 ft 499 kts 291°
2026-05-09 07:34 50.37199 -6.96058 34057 ft 499 kts 291°
2026-05-09 07:34 50.39990 -7.05999 34051 ft 498 kts 291°
2026-05-09 07:35 50.42772 -7.15951 34060 ft 498 kts 291°
2026-05-09 07:35 50.45543 -7.25906 34054 ft 498 kts 291°
2026-05-09 07:36 50.48303 -7.35864 34059 ft 497 kts 291°
2026-05-09 07:36 50.51053 -7.45829 34067 ft 497 kts 290°
2026-05-09 07:37 50.53779 -7.55747 34067 ft 498 kts 290°
2026-05-09 07:37 50.56513 -7.65736 34065 ft 497 kts 290°
2026-05-09 07:38 50.59238 -7.75739 34075 ft 497 kts 291°
2026-05-09 07:38 50.61952 -7.85742 34065 ft 496 kts 290°
2026-05-09 07:39 50.64655 -7.95742 34093 ft 496 kts 290°
2026-05-09 07:39 50.67195 -8.05814 34087 ft 493 kts 287°
2026-05-09 07:40 50.69489 -8.16007 34096 ft 493 kts 286°
2026-05-09 07:40 50.71750 -8.26208 34097 ft 492 kts 287°
2026-05-09 07:41 50.74022 -8.36402 34086 ft 492 kts 285°
2026-05-09 07:41 50.76299 -8.46602 34113 ft 493 kts 285°
2026-05-09 07:42 50.78572 -8.56817 34098 ft 493 kts 287°
2026-05-09 07:42 50.80826 -8.67005 34100 ft 490 kts 286°
2026-05-09 07:43 50.83062 -8.77156 34115 ft 487 kts 286°
2026-05-09 07:43 50.85282 -8.87282 34116 ft 487 kts 286°
2026-05-09 07:44 50.87495 -8.97430 34117 ft 488 kts 285°
2026-05-09 07:44 50.89695 -9.07589 34109 ft 487 kts 285°
2026-05-09 07:45 50.91884 -9.17729 34108 ft 486 kts 286°
2026-05-09 07:45 50.94047 -9.27784 34105 ft 484 kts 286°
2026-05-09 07:46 50.96206 -9.37887 34108 ft 484 kts 284°
2026-05-09 07:46 50.98354 -9.48002 34134 ft 483 kts 285°
2026-05-09 07:47 51.00492 -9.58101 34131 ft 482 kts 286°
2026-05-09 07:47 51.02620 -9.68194 34110 ft 481 kts 284°
2026-05-09 07:48 51.04733 -9.78278 34123 ft 481 kts 284°
2026-05-09 07:48 51.06836 -9.88374 34125 ft 482 kts 286°
2026-05-09 07:49 51.08935 -9.98495 34137 ft 481 kts 285°
2026-05-09 07:49 51.11021 -10.08607 34131 ft 481 kts 284°
2026-05-09 07:50 51.13100 -10.18736 34138 ft 481 kts 285°
2026-05-09 07:50 51.15173 -10.28879 34139 ft 482 kts 284°
2026-05-09 07:51 51.17237 -10.39033 34144 ft 482 kts 285°
2026-05-09 07:51 51.19290 -10.49190 34141 ft 481 kts 285°
2026-05-09 07:52 51.21333 -10.59343 34150 ft 480 kts 285°
2026-05-09 07:52 51.23364 -10.69485 34151 ft 480 kts 284°
2026-05-09 07:53 51.25376 -10.79612 34153 ft 479 kts 285°
2026-05-09 07:53 51.27045 -10.88036 34160 ft 478 kts 285°
2026-05-09 07:54 51.29042 -10.98162 34151 ft 478 kts 285°
2026-05-09 07:54 51.31028 -11.08282 34171 ft 476 kts 285°
2026-05-09 07:55 51.32993 -11.18359 34158 ft 474 kts 285°
2026-05-09 07:55 51.34940 -11.28393 34159 ft 471 kts 286°
2026-05-09 07:56 51.36870 -11.38386 34177 ft 469 kts 285°
2026-05-09 07:56 51.38788 -11.48368 34180 ft 469 kts 285°
2026-05-09 07:57 51.40692 -11.58344 34182 ft 469 kts 286°
2026-05-09 07:57 51.42587 -11.68317 34182 ft 468 kts 285°
2026-05-09 07:58 51.44474 -11.78300 34188 ft 467 kts 285°
2026-05-09 07:58 51.46348 -11.88270 34188 ft 466 kts 285°
2026-05-09 07:59 51.48191 -11.98122 34186 ft 463 kts 285°
2026-05-09 07:59 51.50044 -12.08081 34189 ft 463 kts 285°
2026-05-09 08:00 51.51863 -12.17920 34209 ft 462 kts 285°
2026-05-09 08:00 51.53685 -12.27813 34213 ft 461 kts 285°
2026-05-09 08:01 51.55505 -12.37757 34217 ft 460 kts 285°
2026-05-09 08:01 51.57302 -12.47634 34214 ft 461 kts 285°
2026-05-09 08:02 51.59084 -12.57473 34224 ft 462 kts 285°
2026-05-09 08:02 51.60875 -12.67417 34234 ft 463 kts 285°
2026-05-09 08:03 51.62654 -12.77345 34226 ft 461 kts 285°
2026-05-09 08:03 51.64422 -12.87268 34234 ft 461 kts 285°
2026-05-09 08:04 51.66182 -12.97206 34244 ft 462 kts 285°
2026-05-09 08:04 51.67936 -13.07162 34248 ft 462 kts 284°
2026-05-09 08:05 51.69681 -13.17124 34242 ft 461 kts 285°
2026-05-09 08:05 51.71419 -13.27102 34245 ft 463 kts 285°
2026-05-09 08:06 51.73157 -13.37137 34261 ft 466 kts 285°
2026-05-09 08:06 51.74895 -13.47219 34257 ft 467 kts 284°
2026-05-09 08:07 51.76610 -13.57236 34260 ft 465 kts 284°
2026-05-09 08:07 51.78332 -13.67350 34264 ft 463 kts 284°
2026-05-09 08:08 51.80018 -13.77312 34270 ft 463 kts 284°
2026-05-09 08:08 51.81709 -13.87357 34273 ft 464 kts 284°
2026-05-09 08:09 51.83394 -13.97428 34271 ft 465 kts 284°
2026-05-09 08:09 51.85076 -14.07536 34277 ft 466 kts 284°
2026-05-09 08:10 51.86751 -14.17665 34289 ft 466 kts 284°
2026-05-09 08:10 51.88420 -14.27815 34284 ft 466 kts 284°
2026-05-09 08:11 51.90077 -14.37960 34295 ft 464 kts 284°
2026-05-09 08:11 51.91709 -14.48002 34295 ft 462 kts 284°
2026-05-09 08:12 51.94147 -14.63128 34302 ft 462 kts 284°
2026-05-09 08:12 51.95757 -14.73191 34297 ft 460 kts 284°
2026-05-09 08:13 51.97354 -14.83228 34306 ft 460 kts 284°
2026-05-09 08:13 51.98948 -14.93302 34313 ft 462 kts 284°
2026-05-09 08:14 52.00129 -15.03566 34323 ft 464 kts 275°
2026-05-09 08:14 52.00346 -15.14046 34318 ft 465 kts 272°
2026-05-09 08:15 52.00506 -15.24550 34326 ft 465 kts 272°
2026-05-09 08:15 52.00683 -15.35041 34315 ft 465 kts 272°
2026-05-09 08:16 52.00865 -15.45470 34323 ft 466 kts 272°
2026-05-09 08:16 52.01044 -15.55978 34323 ft 467 kts 272°
2026-05-09 08:17 52.01214 -15.66538 34341 ft 468 kts 272°
2026-05-09 08:17 52.01374 -15.77106 34334 ft 468 kts 272°
2026-05-09 08:18 52.01523 -15.87662 34335 ft 468 kts 272°
2026-05-09 08:18 52.01665 -15.98242 34339 ft 470 kts 273°
2026-05-09 08:19 52.01797 -16.08869 34350 ft 472 kts 272°
2026-05-09 08:19 52.01920 -16.19542 34349 ft 474 kts 272°
2026-05-09 08:20 52.02033 -16.30255 34356 ft 475 kts 272°
2026-05-09 08:20 52.02136 -16.40975 34342 ft 476 kts 273°
2026-05-09 08:21 52.02233 -16.51748 34360 ft 478 kts 274°
2026-05-09 08:21 52.02318 -16.62569 34363 ft 481 kts 272°
2026-05-09 08:22 52.02392 -16.73445 34366 ft 482 kts 273°
2026-05-09 08:22 52.02457 -16.84259 34362 ft 483 kts 272°
2026-05-09 08:23 52.02514 -16.95166 34353 ft 484 kts 274°
2026-05-09 08:23 52.02559 -17.06128 34379 ft 487 kts 273°
2026-05-09 08:24 52.02596 -17.17164 34381 ft 491 kts 273°
2026-05-09 08:24 52.02622 -17.28290 34381 ft 493 kts 274°
2026-05-09 08:25 52.02636 -17.39438 34375 ft 494 kts 274°
2026-05-09 08:25 52.02640 -17.50584 34378 ft 493 kts 274°
2026-05-09 08:26 52.02634 -17.61709 34390 ft 492 kts 274°
2026-05-09 08:26 52.02618 -17.72806 34394 ft 491 kts 273°
2026-05-09 08:27 52.02592 -17.83907 34395 ft 491 kts 274°
2026-05-09 08:27 52.02555 -17.94992 34387 ft 490 kts 274°
2026-05-09 08:28 52.02508 -18.06057 34397 ft 490 kts 274°
2026-05-09 08:28 52.02450 -18.17130 34402 ft 490 kts 273°
2026-05-09 08:29 52.02383 -18.28202 34410 ft 491 kts 273°
2026-05-09 08:29 52.02304 -18.39289 34410 ft 491 kts 273°
2026-05-09 08:30 52.02215 -18.50374 34406 ft 491 kts 273°
2026-05-09 08:30 52.02116 -18.61469 34417 ft 491 kts 273°
2026-05-09 08:31 52.02006 -18.72566 34415 ft 492 kts 273°
2026-05-09 08:31 52.01886 -18.83669 34416 ft 492 kts 273°
2026-05-09 08:32 52.01756 -18.94695 34413 ft 492 kts 273°
2026-05-09 08:33 52.01540 -19.11339 34428 ft 492 kts 273°
2026-05-09 08:33 52.01384 -19.22441 34431 ft 492 kts 273°
2026-05-09 08:34 52.01216 -19.33542 34432 ft 492 kts 273°
2026-05-09 08:34 52.01039 -19.44650 34423 ft 492 kts 273°
2026-05-09 08:35 52.00851 -19.55756 34445 ft 493 kts 273°
2026-05-09 08:35 52.00653 -19.66875 34430 ft 493 kts 273°
2026-05-09 08:36 52.00443 -19.78018 34429 ft 494 kts 273°
2026-05-09 08:36 52.00224 -19.89166 34432 ft 495 kts 272°
2026-05-09 08:37 52.00017 -20.00337 34432 ft 494 kts 276°
2026-05-09 08:37 52.00397 -20.11390 34438 ft 491 kts 280°
2026-05-09 08:38 52.00897 -20.22483 34443 ft 494 kts 281°
2026-05-09 08:38 52.01376 -20.33658 34456 ft 498 kts 281°
2026-05-09 08:39 52.01823 -20.44908 34458 ft 501 kts 281°
2026-05-09 08:39 52.02251 -20.56205 34455 ft 502 kts 280°
2026-05-09 08:40 52.02667 -20.67522 34463 ft 501 kts 280°
2026-05-09 08:40 52.03074 -20.78802 34462 ft 500 kts 280°
2026-05-09 08:41 52.03403 -20.88158 34464 ft 499 kts 280°
2026-05-09 08:41 52.03791 -20.99397 34467 ft 498 kts 280°
2026-05-09 08:42 52.04166 -21.10625 34470 ft 498 kts 281°
2026-05-09 08:42 52.04534 -21.21875 34479 ft 500 kts 281°
2026-05-09 08:43 52.04893 -21.33177 34454 ft 502 kts 282°
2026-05-09 08:43 52.05241 -21.44515 34483 ft 504 kts 282°
2026-05-09 08:44 52.05579 -21.55907 34490 ft 505 kts 282°
2026-05-09 08:44 52.05906 -21.67330 34484 ft 507 kts 282°
2026-05-09 08:45 52.06223 -21.78781 34493 ft 508 kts 282°
2026-05-09 08:45 52.06529 -21.90264 34491 ft 509 kts 282°
2026-05-09 08:46 52.06824 -22.01751 34495 ft 509 kts 282°
2026-05-09 08:46 52.07107 -22.13238 34464 ft 508 kts 282°
2026-05-09 08:47 52.07380 -22.24707 34493 ft 508 kts 282°
2026-05-09 08:47 52.07642 -22.36174 34503 ft 508 kts 282°
2026-05-09 08:48 52.07893 -22.47654 34470 ft 508 kts 282°
2026-05-09 08:48 52.08132 -22.59125 34503 ft 507 kts 282°
2026-05-09 08:49 52.08360 -22.70581 34494 ft 507 kts 282°
2026-05-09 08:49 52.08577 -22.82036 34511 ft 507 kts 282°
2026-05-09 08:50 52.08783 -22.93425 34518 ft 508 kts 282°
2026-05-09 08:50 52.08978 -23.04908 34526 ft 508 kts 282°
2026-05-09 08:51 52.09162 -23.16403 34515 ft 509 kts 282°
2026-05-09 08:51 52.09335 -23.27911 34525 ft 509 kts 282°
2026-05-09 08:52 52.09498 -23.39426 34525 ft 510 kts 282°
2026-05-09 08:52 52.09649 -23.50964 34528 ft 511 kts 282°
2026-05-09 08:53 52.09789 -23.62510 34492 ft 511 kts 282°
2026-05-09 08:53 52.09916 -23.74065 34492 ft 511 kts 282°
2026-05-09 08:54 52.10034 -23.85604 34527 ft 510 kts 282°
2026-05-09 08:54 52.10141 -23.97151 34533 ft 511 kts 282°
2026-05-09 08:55 52.10236 -24.08708 34538 ft 511 kts 282°
2026-05-09 08:55 52.10320 -24.20269 34536 ft 511 kts 281°
2026-05-09 08:56 52.10392 -24.31837 34528 ft 511 kts 281°
2026-05-09 08:56 52.10453 -24.43403 34549 ft 511 kts 281°
2026-05-09 08:57 52.10503 -24.54971 34536 ft 512 kts 281°
2026-05-09 08:57 52.10541 -24.66539 34553 ft 512 kts 281°
2026-05-09 08:58 52.10568 -24.78115 34517 ft 512 kts 281°
2026-05-09 08:58 52.10583 -24.89676 34546 ft 510 kts 281°
2026-05-09 08:59 52.10587 -25.01205 34547 ft 510 kts 281°
2026-05-09 08:59 52.10581 -25.12730 34553 ft 509 kts 280°
2026-05-09 09:00 52.10563 -25.24252 34557 ft 510 kts 280°
2026-05-09 09:00 52.10533 -25.35784 34563 ft 510 kts 280°
2026-05-09 09:01 52.10494 -25.47316 34563 ft 510 kts 280°
2026-05-09 09:01 52.10443 -25.58855 34560 ft 511 kts 280°
2026-05-09 09:02 52.10380 -25.70417 34562 ft 511 kts 279°
2026-05-09 09:02 52.10305 -25.81987 34563 ft 512 kts 279°
2026-05-09 09:03 52.10219 -25.93491 34562 ft 512 kts 279°
2026-05-09 09:03 52.10121 -26.05058 34566 ft 511 kts 279°
2026-05-09 09:04 52.10012 -26.16605 34569 ft 510 kts 279°
2026-05-09 09:04 52.09892 -26.28138 34572 ft 510 kts 279°
2026-05-09 09:05 52.09762 -26.39664 34572 ft 510 kts 279°
2026-05-09 09:05 52.09621 -26.51185 34571 ft 509 kts 278°
2026-05-09 09:06 52.09468 -26.62696 34574 ft 509 kts 278°
2026-05-09 09:06 52.09304 -26.74209 34579 ft 509 kts 278°
2026-05-09 09:07 52.09129 -26.85726 34576 ft 509 kts 278°
2026-05-09 09:07 52.08943 -26.97234 34580 ft 510 kts 278°
2026-05-09 09:08 52.08744 -27.08758 34573 ft 509 kts 277°
2026-05-09 09:08 52.08535 -27.20255 34581 ft 508 kts 277°
2026-05-09 09:09 52.08315 -27.31729 34581 ft 508 kts 277°
2026-05-09 09:09 52.08085 -27.43193 34584 ft 507 kts 277°
2026-05-09 09:10 52.07844 -27.54651 34559 ft 507 kts 277°
2026-05-09 09:10 52.07592 -27.66095 34589 ft 507 kts 277°
2026-05-09 09:11 52.07329 -27.77555 34611 ft 510 kts 277°
2026-05-09 09:11 52.07194 -27.83331 34838 ft 511 kts 276°
2026-05-09 09:11 52.07054 -27.89085 35226 ft 509 kts 276°
2026-05-09 09:11 52.06909 -27.94813 35678 ft 505 kts 276°
2026-05-09 09:12 52.06762 -28.00496 36129 ft 502 kts 276°
2026-05-09 09:12 52.06615 -28.06141 36531 ft 499 kts 276°
2026-05-09 09:12 52.06468 -28.11784 36593 ft 501 kts 276°
2026-05-09 09:13 52.06168 -28.23059 36592 ft 498 kts 276°
2026-05-09 09:13 52.05856 -28.34260 36597 ft 495 kts 276°
2026-05-09 09:14 52.05535 -28.45409 36585 ft 494 kts 275°
2026-05-09 09:14 52.05208 -28.56469 36593 ft 493 kts 275°
2026-05-09 09:15 52.04868 -28.67590 36591 ft 493 kts 275°
2026-05-09 09:15 52.04516 -28.78718 36598 ft 494 kts 275°
2026-05-09 09:16 52.04154 -28.89874 36600 ft 495 kts 275°
2026-05-09 09:16 52.03588 -29.06641 36599 ft 496 kts 275°
2026-05-09 09:17 52.03196 -29.17836 36586 ft 496 kts 275°
2026-05-09 09:17 52.02794 -29.29023 36599 ft 496 kts 275°
2026-05-09 09:18 52.02382 -29.40203 36602 ft 496 kts 274°
2026-05-09 09:18 52.01959 -29.51365 36601 ft 495 kts 274°
2026-05-09 09:19 52.01528 -29.62499 36600 ft 494 kts 274°
2026-05-09 09:19 52.01087 -29.73605 36596 ft 492 kts 274°
2026-05-09 09:20 52.00638 -29.84671 36599 ft 491 kts 274°
2026-05-09 09:20 52.00181 -29.95722 36604 ft 490 kts 274°
2026-05-09 09:21 51.99668 -30.06766 36606 ft 491 kts 272°
2026-05-09 09:21 51.99026 -30.17806 36606 ft 492 kts 272°
2026-05-09 09:22 51.98358 -30.28855 36601 ft 492 kts 272°
2026-05-09 09:22 51.97696 -30.39887 36616 ft 492 kts 272°
2026-05-09 09:23 51.97035 -30.50931 36599 ft 492 kts 272°
2026-05-09 09:23 51.96366 -30.61970 36602 ft 492 kts 272°
2026-05-09 09:24 51.95686 -30.73011 36601 ft 492 kts 271°
2026-05-09 09:24 51.94994 -30.84058 36596 ft 492 kts 271°
2026-05-09 09:25 51.94292 -30.95083 36600 ft 492 kts 271°
2026-05-09 09:25 51.93580 -31.06115 36608 ft 492 kts 271°
2026-05-09 09:26 51.92981 -31.15270 36600 ft 492 kts 271°
2026-05-09 09:26 51.92250 -31.26290 36599 ft 492 kts 271°
2026-05-09 09:27 51.91509 -31.37310 36598 ft 492 kts 271°
2026-05-09 09:27 51.90758 -31.48323 36605 ft 492 kts 271°
2026-05-09 09:28 51.89996 -31.59336 36603 ft 492 kts 271°
2026-05-09 09:28 51.89223 -31.70352 36596 ft 492 kts 271°
2026-05-09 09:29 51.88440 -31.81361 36553 ft 492 kts 270°
2026-05-09 09:29 51.87648 -31.92339 36589 ft 491 kts 270°
2026-05-09 09:30 51.86848 -32.03295 36595 ft 490 kts 270°
2026-05-09 09:30 51.86039 -32.14244 36605 ft 490 kts 270°
2026-05-09 09:31 51.85220 -32.25187 36600 ft 490 kts 270°
2026-05-09 09:32 51.83971 -32.41595 36597 ft 490 kts 269°
2026-05-09 09:32 51.83126 -32.52528 36596 ft 490 kts 269°
2026-05-09 09:33 51.82271 -32.63456 36593 ft 490 kts 269°
2026-05-09 09:33 51.81410 -32.74315 36596 ft 490 kts 269°
2026-05-09 09:34 51.80534 -32.85249 36573 ft 491 kts 269°
2026-05-09 09:34 51.79648 -32.96175 36592 ft 491 kts 268°
2026-05-09 09:36 51.76001 -33.39827 36581 ft 490 kts 268°
2026-05-09 09:37 51.75066 -33.50711 36590 ft 489 kts 268°
2026-05-09 09:37 51.74121 -33.61580 36593 ft 489 kts 267°
2026-05-09 09:38 51.73168 -33.72431 36589 ft 489 kts 267°
2026-05-09 09:38 51.72205 -33.83273 36587 ft 488 kts 267°
2026-05-09 09:39 51.71233 -33.94112 36577 ft 488 kts 267°
2026-05-09 09:39 51.70252 -34.04922 36585 ft 487 kts 267°
2026-05-09 09:40 51.69261 -34.15729 36584 ft 487 kts 266°
2026-05-09 09:40 51.68261 -34.26527 36577 ft 487 kts 266°
2026-05-09 09:41 51.67252 -34.37305 36580 ft 487 kts 266°
2026-05-09 09:41 51.66234 -34.48076 36573 ft 486 kts 266°
2026-05-09 09:42 51.65206 -34.58832 36576 ft 486 kts 266°
2026-05-09 09:42 51.64170 -34.69574 36577 ft 486 kts 265°
2026-05-09 09:43 51.63124 -34.80317 36569 ft 486 kts 265°
2026-05-09 09:43 51.62068 -34.91056 36572 ft 486 kts 265°
2026-05-09 09:44 51.61003 -35.01779 36566 ft 485 kts 265°
2026-05-09 09:44 51.59928 -35.12488 36564 ft 485 kts 265°
2026-05-09 09:45 51.58852 -35.23117 36563 ft 485 kts 265°
2026-05-09 09:45 51.57760 -35.33805 36568 ft 484 kts 265°
2026-05-09 09:46 51.56659 -35.44481 36543 ft 484 kts 264°
2026-05-09 09:46 51.55551 -35.55121 36548 ft 482 kts 264°
2026-05-09 09:47 51.54436 -35.65729 36548 ft 480 kts 264°
2026-05-09 09:47 51.53316 -35.76289 36547 ft 479 kts 264°
2026-05-09 09:48 51.52189 -35.86836 36554 ft 479 kts 264°
2026-05-09 09:48 51.51052 -35.97372 36532 ft 479 kts 263°
2026-05-09 09:49 51.49908 -36.07883 36543 ft 478 kts 263°
2026-05-09 09:49 51.48754 -36.18388 36542 ft 478 kts 263°
2026-05-09 09:50 51.47591 -36.28889 36545 ft 478 kts 263°
2026-05-09 09:50 51.46418 -36.39392 36543 ft 478 kts 263°
2026-05-09 09:51 51.45235 -36.49892 36543 ft 479 kts 263°
2026-05-09 09:51 51.44042 -36.60391 36521 ft 479 kts 262°
2026-05-09 09:52 51.42841 -36.70875 36530 ft 478 kts 262°
2026-05-09 09:52 51.41632 -36.81337 36528 ft 477 kts 262°
2026-05-09 09:53 51.40416 -36.91782 36526 ft 477 kts 262°
2026-05-09 09:53 51.39192 -37.02205 36518 ft 476 kts 262°
2026-05-09 09:54 51.37962 -37.12597 36518 ft 475 kts 262°
2026-05-09 09:54 51.36722 -37.22983 36509 ft 474 kts 262°
2026-05-09 09:55 51.35476 -37.33345 36504 ft 474 kts 262°
2026-05-09 09:55 51.34222 -37.43694 36506 ft 474 kts 261°
2026-05-09 09:56 51.32959 -37.54031 36502 ft 473 kts 261°
2026-05-09 09:56 51.31688 -37.64357 36499 ft 473 kts 261°
2026-05-09 09:57 51.30409 -37.74668 36497 ft 473 kts 261°
2026-05-09 09:57 51.29122 -37.84967 36492 ft 472 kts 261°
2026-05-09 09:58 51.27829 -37.95228 36485 ft 471 kts 261°
2026-05-09 09:58 51.26532 -38.05450 36473 ft 468 kts 260°
2026-05-09 09:59 51.25242 -38.15538 36489 ft 466 kts 260°
2026-05-09 09:59 51.23938 -38.25670 36482 ft 465 kts 259°
2026-05-09 10:00 51.22630 -38.35769 36458 ft 465 kts 260°
2026-05-09 10:00 51.21309 -38.45878 36462 ft 466 kts 261°
2026-05-09 10:01 51.19977 -38.56004 36465 ft 467 kts 258°
2026-05-09 10:01 51.18634 -38.66124 36437 ft 467 kts 259°
2026-05-09 10:02 51.17289 -38.76189 36427 ft 459 kts 259°
2026-05-09 10:02 51.15957 -38.86113 36450 ft 461 kts 258°
2026-05-09 10:03 51.14595 -38.96192 36443 ft 469 kts 258°
2026-05-09 10:03 51.13220 -39.06289 36414 ft 463 kts 257°
2026-05-09 10:04 51.11854 -39.16239 36436 ft 459 kts 257°
2026-05-09 10:04 51.10485 -39.26144 36426 ft 459 kts 257°
2026-05-09 10:05 51.09127 -39.35918 36430 ft 462 kts 257°
2026-05-09 10:05 51.07722 -39.45955 36418 ft 467 kts 257°
2026-05-09 10:06 51.06316 -39.55942 36399 ft 460 kts 257°
2026-05-09 10:06 51.04927 -39.65735 36393 ft 455 kts 256°
2026-05-09 10:07 51.03525 -39.75553 36412 ft 458 kts 256°
2026-05-09 10:07 51.02104 -39.85449 36382 ft 461 kts 256°
2026-05-09 10:08 51.00670 -39.95388 36378 ft 462 kts 256°
2026-05-09 10:08 50.99213 -40.05327 36393 ft 460 kts 255°
2026-05-09 10:09 50.97730 -40.15120 36378 ft 454 kts 254°
2026-05-09 10:09 50.96245 -40.24836 36373 ft 453 kts 255°
2026-05-09 10:10 50.94749 -40.34587 36369 ft 456 kts 255°
2026-05-09 10:10 50.93241 -40.44383 36363 ft 458 kts 255°
2026-05-09 10:11 50.91731 -40.54154 36359 ft 455 kts 255°
2026-05-09 10:11 50.90222 -40.63848 36353 ft 451 kts 254°
2026-05-09 10:12 50.88712 -40.73494 36354 ft 451 kts 254°
2026-05-09 10:12 50.87436 -40.81596 36340 ft 454 kts 254°
2026-05-09 10:13 50.85907 -40.91258 36353 ft 456 kts 254°
2026-05-09 10:13 50.84353 -41.01012 36339 ft 457 kts 254°
2026-05-09 10:14 50.82796 -41.10745 36325 ft 456 kts 254°
2026-05-09 10:14 50.81238 -41.20423 36328 ft 453 kts 254°
2026-05-09 10:15 50.79678 -41.30056 36325 ft 451 kts 253°
2026-05-09 10:15 50.78114 -41.39648 36316 ft 450 kts 253°
2026-05-09 10:16 50.76546 -41.49214 36321 ft 450 kts 253°
2026-05-09 10:16 50.74967 -41.58796 36317 ft 451 kts 253°
2026-05-09 10:17 50.73377 -41.68387 36307 ft 452 kts 253°
2026-05-09 10:17 50.71777 -41.77987 36300 ft 453 kts 253°
2026-05-09 10:18 50.70167 -41.87591 36304 ft 452 kts 253°
2026-05-09 10:18 50.68550 -41.97185 36291 ft 453 kts 253°
2026-05-09 10:19 50.66926 -42.06769 36286 ft 452 kts 253°
2026-05-09 10:19 50.65298 -42.16328 36280 ft 451 kts 253°
2026-05-09 10:20 50.63660 -42.25883 36275 ft 451 kts 252°
2026-05-09 10:20 50.62017 -42.35421 36260 ft 452 kts 252°
2026-05-09 10:21 50.60363 -42.44969 36270 ft 452 kts 252°
2026-05-09 10:21 50.58700 -42.54519 36261 ft 453 kts 252°
2026-05-09 10:22 50.57027 -42.64073 36249 ft 453 kts 252°
2026-05-09 10:22 50.55347 -42.73615 36231 ft 453 kts 252°
2026-05-09 10:23 50.53661 -42.83146 36237 ft 452 kts 252°
2026-05-09 10:23 50.51969 -42.92654 36232 ft 452 kts 251°
2026-05-09 10:24 50.50270 -43.02148 36227 ft 451 kts 251°
2026-05-09 10:24 50.48577 -43.11561 36220 ft 451 kts 252°
2026-05-09 10:25 50.46867 -43.21029 36227 ft 451 kts 251°
2026-05-09 10:25 50.45148 -43.30489 36210 ft 451 kts 251°
2026-05-09 10:26 50.43420 -43.39955 36214 ft 451 kts 251°
2026-05-09 10:26 50.41686 -43.49398 36207 ft 451 kts 250°
2026-05-09 10:27 50.39945 -43.58829 36201 ft 450 kts 251°
2026-05-09 10:27 50.38203 -43.68225 36193 ft 449 kts 250°
2026-05-09 10:28 50.36456 -43.77599 36172 ft 448 kts 250°
2026-05-09 10:28 50.34701 -43.86964 36175 ft 448 kts 250°
2026-05-09 10:29 50.32940 -43.96316 36166 ft 448 kts 250°
2026-05-09 10:29 50.31172 -44.05656 36157 ft 448 kts 250°
2026-05-09 10:30 50.29398 -44.14987 36155 ft 448 kts 250°
2026-05-09 10:30 50.27616 -44.24310 36151 ft 447 kts 250°
2026-05-09 10:31 50.25828 -44.33623 36152 ft 447 kts 249°
2026-05-09 10:31 50.24032 -44.42931 36124 ft 447 kts 249°
2026-05-09 10:32 50.22231 -44.52215 36125 ft 447 kts 249°
2026-05-09 10:32 50.20423 -44.61494 36120 ft 446 kts 249°
2026-05-09 10:33 50.18609 -44.70755 36113 ft 446 kts 249°
2026-05-09 10:33 50.16793 -44.79985 36095 ft 445 kts 249°
2026-05-09 10:34 50.14971 -44.89199 36091 ft 444 kts 249°
2026-05-09 10:34 50.12233 -45.02967 36087 ft 443 kts 249°
2026-05-09 10:35 50.10401 -45.12121 36076 ft 443 kts 249°
2026-05-09 10:35 50.08563 -45.21266 36098 ft 442 kts 248°
2026-05-09 10:36 50.06718 -45.30401 36063 ft 442 kts 248°
2026-05-09 10:36 50.04869 -45.39514 36058 ft 441 kts 248°
2026-05-09 10:37 50.03017 -45.48603 36048 ft 440 kts 248°
2026-05-09 10:37 50.01159 -45.57677 36053 ft 440 kts 248°
2026-05-09 10:38 49.99297 -45.66728 36072 ft 440 kts 247°
2026-05-09 10:38 49.97427 -45.75777 36035 ft 439 kts 247°
2026-05-09 10:39 49.95554 -45.84804 36026 ft 438 kts 247°
2026-05-09 10:39 49.93678 -45.93800 36030 ft 438 kts 246°
2026-05-09 10:40 49.91798 -46.02775 36022 ft 437 kts 246°
2026-05-09 10:40 49.89924 -46.11681 36009 ft 437 kts 246°
2026-05-09 10:41 49.88032 -46.20635 36014 ft 437 kts 246°
2026-05-09 10:41 49.86126 -46.29611 36013 ft 439 kts 246°
2026-05-09 10:42 49.84205 -46.38620 35990 ft 440 kts 246°
2026-05-09 10:42 49.82280 -46.47612 35995 ft 439 kts 246°
2026-05-09 10:43 49.80353 -46.56575 35993 ft 438 kts 246°
2026-05-09 10:43 49.78421 -46.65516 35983 ft 438 kts 246°
2026-05-09 10:44 49.76483 -46.74449 35999 ft 438 kts 245°
2026-05-09 10:44 49.74541 -46.83365 35976 ft 437 kts 245°
2026-05-09 10:46 49.69672 -47.05547 35966 ft 435 kts 244°
2026-05-09 10:46 49.67716 -47.14385 35946 ft 435 kts 244°
2026-05-09 10:47 49.65758 -47.23200 35945 ft 434 kts 244°
2026-05-09 10:47 49.63795 -47.31999 35937 ft 433 kts 244°
2026-05-09 10:48 49.61826 -47.40788 35925 ft 433 kts 244°
2026-05-09 10:48 49.59851 -47.49569 35930 ft 434 kts 244°
2026-05-09 10:49 49.57868 -47.58343 35923 ft 433 kts 244°
2026-05-09 10:49 49.55882 -47.67103 35902 ft 433 kts 244°
2026-05-09 10:50 49.53890 -47.75847 35912 ft 433 kts 244°
2026-05-09 10:50 49.51893 -47.84581 35897 ft 432 kts 243°
2026-05-09 10:51 49.49893 -47.93291 35904 ft 432 kts 243°
2026-05-09 10:51 49.47890 -48.01980 35886 ft 430 kts 243°
2026-05-09 10:52 49.45885 -48.10639 35885 ft 429 kts 243°
2026-05-09 10:52 49.43890 -48.19220 35870 ft 429 kts 243°
2026-05-09 10:53 49.41865 -48.27897 35871 ft 429 kts 243°
2026-05-09 10:53 49.39860 -48.36449 35874 ft 429 kts 243°
2026-05-09 10:54 49.37837 -48.45051 35867 ft 428 kts 242°
2026-05-09 10:54 49.35813 -48.53622 35861 ft 427 kts 242°
2026-05-09 10:55 49.33789 -48.62161 35855 ft 426 kts 242°
2026-05-09 10:55 49.31758 -48.70690 35851 ft 425 kts 242°
2026-05-09 10:56 49.29726 -48.79198 35870 ft 425 kts 242°
2026-05-09 10:56 49.27685 -48.87696 35857 ft 426 kts 241°
2026-05-09 10:57 49.25637 -48.96201 35838 ft 425 kts 241°
2026-05-09 10:57 49.23595 -49.04658 35848 ft 423 kts 241°
2026-05-09 10:58 49.21894 -49.11665 35821 ft 423 kts 241°
2026-05-09 10:58 49.19850 -49.20062 35839 ft 421 kts 241°
2026-05-09 10:59 49.17796 -49.28457 35826 ft 422 kts 241°
2026-05-09 10:59 49.15729 -49.36876 35833 ft 425 kts 241°
2026-05-09 11:00 49.13644 -49.45342 35823 ft 427 kts 240°
2026-05-09 11:00 49.11541 -49.53848 35820 ft 429 kts 241°
2026-05-09 11:01 49.09427 -49.62375 35840 ft 430 kts 240°
2026-05-09 11:01 49.07302 -49.70911 35817 ft 430 kts 240°
2026-05-09 11:02 49.05171 -49.79438 35813 ft 430 kts 240°
2026-05-09 11:02 49.03038 -49.87942 35815 ft 429 kts 240°
2026-05-09 11:03 49.00907 -49.96409 35797 ft 426 kts 240°
2026-05-09 11:03 48.98809 -50.04836 35797 ft 425 kts 240°
2026-05-09 11:04 48.96787 -50.13287 35809 ft 424 kts 240°
2026-05-09 11:04 48.94787 -50.21656 35790 ft 423 kts 240°
2026-05-09 11:05 48.92766 -50.30043 35792 ft 422 kts 240°
2026-05-09 11:05 48.90734 -50.38415 35796 ft 422 kts 240°
2026-05-09 11:06 48.88693 -50.46791 35790 ft 423 kts 240°
2026-05-09 11:06 48.86642 -50.55175 35792 ft 424 kts 240°
2026-05-09 11:07 48.84583 -50.63564 35791 ft 424 kts 240°
2026-05-09 11:07 48.82514 -50.71962 35787 ft 425 kts 240°
2026-05-09 11:08 48.80436 -50.80363 35835 ft 426 kts 240°
2026-05-09 11:08 48.78349 -50.88771 35797 ft 425 kts 239°
2026-05-09 11:09 48.76262 -50.97153 35795 ft 425 kts 239°
2026-05-09 11:09 48.74174 -51.05507 35788 ft 423 kts 239°
2026-05-09 11:10 48.72089 -51.13812 35787 ft 421 kts 239°
2026-05-09 11:10 48.70006 -51.22080 35793 ft 420 kts 239°
2026-05-09 11:11 48.67919 -51.30330 35796 ft 419 kts 239°
2026-05-09 11:11 48.65826 -51.38573 35792 ft 420 kts 239°
2026-05-09 11:12 48.63724 -51.46822 35795 ft 420 kts 239°
2026-05-09 11:12 48.61617 -51.55068 35794 ft 420 kts 238°
2026-05-09 11:13 48.59504 -51.63302 35799 ft 420 kts 238°
2026-05-09 11:13 48.57384 -51.71535 35800 ft 421 kts 238°
2026-05-09 11:14 48.55253 -51.79783 35833 ft 423 kts 237°
2026-05-09 11:14 48.53105 -51.88066 35813 ft 424 kts 237°
2026-05-09 11:15 48.50951 -51.96352 35818 ft 424 kts 237°
2026-05-09 11:15 48.48826 -52.04674 35817 ft 426 kts 238°
2026-05-09 11:16 48.46815 -52.13094 35806 ft 427 kts 239°
2026-05-09 11:16 48.44829 -52.21466 35833 ft 427 kts 238°
2026-05-09 11:17 48.42812 -52.29878 35827 ft 427 kts 238°
2026-05-09 11:17 48.40784 -52.38265 35814 ft 426 kts 238°
2026-05-09 11:18 48.38749 -52.46632 35818 ft 425 kts 238°
2026-05-09 11:18 48.36713 -52.54970 35815 ft 424 kts 238°
2026-05-09 11:19 48.34672 -52.63294 35844 ft 424 kts 238°
2026-05-09 11:19 48.32626 -52.71608 35822 ft 424 kts 238°
2026-05-09 11:20 48.30574 -52.79918 35822 ft 424 kts 238°
2026-05-09 11:20 48.28518 -52.88211 35821 ft 424 kts 237°
2026-05-09 11:21 48.26458 -52.96492 35824 ft 424 kts 237°
2026-05-09 11:21 48.24390 -53.04773 35860 ft 424 kts 237°
2026-05-09 11:22 48.22315 -53.13050 35830 ft 424 kts 237°
2026-05-09 11:22 48.20235 -53.21323 35823 ft 424 kts 237°
2026-05-09 11:23 48.18151 -53.29580 35827 ft 424 kts 237°
2026-05-09 11:23 48.16061 -53.37828 35819 ft 423 kts 237°
2026-05-09 11:24 48.13966 -53.46067 35849 ft 423 kts 237°
2026-05-09 11:24 48.11852 -53.54334 35824 ft 427 kts 238°
2026-05-09 11:25 48.09722 -53.62645 35819 ft 429 kts 238°
2026-05-09 11:25 48.07581 -53.70975 35814 ft 430 kts 238°
2026-05-09 11:26 48.05430 -53.79317 35823 ft 430 kts 238°
2026-05-09 11:26 48.03273 -53.87654 35814 ft 430 kts 238°
2026-05-09 11:27 48.01106 -53.95993 35808 ft 431 kts 238°
2026-05-09 11:27 47.98930 -54.04332 35816 ft 431 kts 238°
2026-05-09 11:28 47.96764 -54.12605 35818 ft 431 kts 238°
2026-05-09 11:28 47.94577 -54.20929 35830 ft 431 kts 238°
2026-05-09 11:29 47.92386 -54.29241 35841 ft 431 kts 238°
2026-05-09 11:29 47.90170 -54.37610 35862 ft 432 kts 239°
2026-05-09 11:30 47.87968 -54.45899 35850 ft 433 kts 239°
2026-05-09 11:30 47.85744 -54.54245 35857 ft 434 kts 239°
2026-05-09 11:31 47.83510 -54.62598 35859 ft 434 kts 239°
2026-05-09 11:31 47.81270 -54.70942 35857 ft 435 kts 239°
2026-05-09 11:32 47.79024 -54.79285 35858 ft 434 kts 239°
2026-05-09 11:32 47.76772 -54.87614 35868 ft 434 kts 239°
2026-05-09 11:33 47.74517 -54.95927 35873 ft 434 kts 239°
2026-05-09 11:33 47.71122 -55.08385 35866 ft 434 kts 239°
2026-05-09 11:34 47.68851 -55.16682 35900 ft 434 kts 239°
2026-05-09 11:34 47.66564 -55.25002 35849 ft 437 kts 239°
2026-05-09 11:35 47.64263 -55.33350 35821 ft 438 kts 239°
2026-05-09 11:35 47.61955 -55.41695 35839 ft 438 kts 239°
2026-05-09 11:36 47.59640 -55.50037 35818 ft 438 kts 239°
2026-05-09 11:36 47.57320 -55.58373 35808 ft 438 kts 240°
2026-05-09 11:37 47.54988 -55.66712 35805 ft 439 kts 240°
2026-05-09 11:37 47.52647 -55.75054 35807 ft 439 kts 240°
2026-05-09 11:38 47.50300 -55.83393 35786 ft 439 kts 240°
2026-05-09 11:38 47.47950 -55.91715 35795 ft 438 kts 240°
2026-05-09 11:39 47.45592 -56.00033 35858 ft 439 kts 241°
2026-05-09 11:40 47.42039 -56.12511 35825 ft 442 kts 241°
2026-05-09 11:40 47.39644 -56.20889 35828 ft 443 kts 241°
2026-05-09 11:41 47.37223 -56.29331 35844 ft 444 kts 241°
2026-05-09 11:41 47.34829 -56.37649 35844 ft 444 kts 241°
2026-05-09 11:42 47.32407 -56.46034 35861 ft 444 kts 241°
2026-05-09 11:42 47.29980 -56.54407 35871 ft 444 kts 241°
2026-05-09 11:43 47.27548 -56.62772 35886 ft 444 kts 241°
2026-05-09 11:43 47.25109 -56.71128 35885 ft 444 kts 241°
2026-05-09 11:44 47.22666 -56.79473 35964 ft 444 kts 242°
2026-05-09 11:44 47.20609 -56.86474 35916 ft 446 kts 242°
2026-05-09 11:45 47.18144 -56.94838 35932 ft 446 kts 242°
2026-05-09 11:45 47.15689 -57.03142 35932 ft 446 kts 242°
2026-05-09 11:46 47.13209 -57.11502 35943 ft 446 kts 242°
2026-05-09 11:46 47.10722 -57.19859 35948 ft 447 kts 242°
2026-05-09 11:47 47.08226 -57.28213 35944 ft 447 kts 242°
2026-05-09 11:47 47.05724 -57.36562 35949 ft 447 kts 242°
2026-05-09 11:48 47.03216 -57.44904 35958 ft 447 kts 242°
2026-05-09 11:48 47.00703 -57.53234 35956 ft 447 kts 242°
2026-05-09 11:49 46.98183 -57.61559 35982 ft 448 kts 242°
2026-05-09 11:49 46.95649 -57.69900 35968 ft 449 kts 242°
2026-05-09 11:50 46.93104 -57.78252 35968 ft 449 kts 242°
2026-05-09 11:50 46.90553 -57.86594 35970 ft 449 kts 242°
2026-05-09 11:51 46.87994 -57.94938 35976 ft 450 kts 242°
2026-05-09 11:51 46.85427 -58.03278 35978 ft 450 kts 242°
2026-05-09 11:52 46.82854 -58.11610 35975 ft 450 kts 242°
2026-05-09 11:52 46.80273 -58.19940 35983 ft 450 kts 242°
2026-05-09 11:53 46.77688 -58.28255 35985 ft 450 kts 242°
2026-05-09 11:53 46.75098 -58.36560 35985 ft 450 kts 242°
2026-05-09 11:54 46.72517 -58.44810 35994 ft 450 kts 243°
2026-05-09 11:54 46.69911 -58.53110 35989 ft 450 kts 243°
2026-05-09 11:55 46.67281 -58.61459 35989 ft 450 kts 243°
2026-05-09 11:56 46.59430 -58.86228 35995 ft 450 kts 242°
2026-05-09 11:57 46.56794 -58.94489 36001 ft 450 kts 242°
2026-05-09 11:57 46.54154 -59.02737 35999 ft 450 kts 242°
2026-05-09 11:58 46.51505 -59.10984 35998 ft 450 kts 242°
2026-05-09 11:58 46.48851 -59.19223 35999 ft 451 kts 243°
2026-05-09 11:59 46.46186 -59.27471 36000 ft 452 kts 243°
2026-05-09 11:59 46.43512 -59.35716 35989 ft 452 kts 242°
2026-05-09 12:00 46.40832 -59.43957 35985 ft 452 kts 242°
2026-05-09 12:00 46.38145 -59.52191 35989 ft 452 kts 243°
2026-05-09 12:01 46.35453 -59.60416 35990 ft 452 kts 243°
2026-05-09 12:01 46.32754 -59.68636 35978 ft 452 kts 242°
2026-05-09 12:02 46.30049 -59.76846 35984 ft 452 kts 242°
2026-05-09 12:02 46.27338 -59.85049 35985 ft 452 kts 243°
2026-05-09 12:03 46.24623 -59.93238 35996 ft 452 kts 243°
2026-05-09 12:03 46.21902 -60.01419 35988 ft 452 kts 243°
2026-05-09 12:04 46.19170 -60.09610 35981 ft 453 kts 243°
2026-05-09 12:04 46.16433 -60.17791 35981 ft 453 kts 243°
2026-05-09 12:05 46.13689 -60.25963 35978 ft 453 kts 243°
2026-05-09 12:05 46.10940 -60.34126 35981 ft 453 kts 243°
2026-05-09 12:06 46.08184 -60.42286 35983 ft 453 kts 243°
2026-05-09 12:06 46.05443 -60.50377 35981 ft 453 kts 243°
2026-05-09 12:07 46.02658 -60.58570 35977 ft 453 kts 243°
2026-05-09 12:07 45.99886 -60.66701 35983 ft 453 kts 243°
2026-05-09 12:08 45.97126 -60.74772 35991 ft 453 kts 243°
2026-05-09 12:08 45.94342 -60.82888 35988 ft 453 kts 243°
2026-05-09 12:09 45.91552 -60.90996 35985 ft 453 kts 243°
2026-05-09 12:09 45.88759 -60.99088 35993 ft 452 kts 243°
2026-05-09 12:10 45.83162 -61.15233 36000 ft 451 kts 243°
2026-05-09 12:11 45.80358 -61.23283 35995 ft 451 kts 243°
2026-05-09 12:11 45.77550 -61.31322 35996 ft 451 kts 243°
2026-05-09 12:12 45.74737 -61.39349 36018 ft 451 kts 243°
2026-05-09 12:12 45.71916 -61.47375 36018 ft 451 kts 243°
2026-05-09 12:13 45.69088 -61.55397 36027 ft 451 kts 243°
2026-05-09 12:13 45.66258 -61.63401 36022 ft 451 kts 243°
2026-05-09 12:14 45.63424 -61.71394 36020 ft 450 kts 243°
2026-05-09 12:14 45.60589 -61.79363 36018 ft 450 kts 243°
2026-05-09 12:15 45.57748 -61.87327 36021 ft 450 kts 243°
2026-05-09 12:15 45.54905 -61.95275 36017 ft 449 kts 243°
2026-05-09 12:16 45.52056 -62.03212 36021 ft 449 kts 243°
2026-05-09 12:16 45.49208 -62.11127 36029 ft 449 kts 243°
2026-05-09 12:17 45.46352 -62.19039 36022 ft 449 kts 243°
2026-05-09 12:17 45.43491 -62.26941 36020 ft 449 kts 243°
2026-05-09 12:18 45.40625 -62.34836 36035 ft 449 kts 243°
2026-05-09 12:18 45.37752 -62.42727 36034 ft 449 kts 243°
2026-05-09 12:19 45.34893 -62.50555 36030 ft 449 kts 243°
2026-05-09 12:19 45.32009 -62.58430 36032 ft 449 kts 243°
2026-05-09 12:20 45.29121 -62.66291 36034 ft 449 kts 243°
2026-05-09 12:20 45.26227 -62.74149 36017 ft 449 kts 243°
2026-05-09 12:21 45.23333 -62.81983 36035 ft 448 kts 243°
2026-05-09 12:21 45.20432 -62.89814 36036 ft 448 kts 243°
2026-05-09 12:22 45.17528 -62.97629 36034 ft 448 kts 243°
2026-05-09 12:22 45.14621 -63.05431 36021 ft 448 kts 243°
2026-05-09 12:23 45.11711 -63.13218 36043 ft 447 kts 243°
2026-05-09 12:23 45.08800 -63.20986 36027 ft 446 kts 243°
2026-05-09 12:24 45.05889 -63.28732 36025 ft 446 kts 243°
2026-05-09 12:24 45.02971 -63.36477 36022 ft 446 kts 243°
2026-05-09 12:25 45.00053 -63.44198 36025 ft 445 kts 243°
2026-05-09 12:25 44.97130 -63.51911 36058 ft 445 kts 243°
2026-05-09 12:26 44.94200 -63.59621 36041 ft 445 kts 243°
2026-05-09 12:26 44.91267 -63.67319 36053 ft 445 kts 243°
2026-05-09 12:27 44.88329 -63.75006 36038 ft 445 kts 243°
2026-05-09 12:27 44.85385 -63.82688 36033 ft 445 kts 243°
2026-05-09 12:28 44.82437 -63.90362 36034 ft 445 kts 243°
2026-05-09 12:28 44.79483 -63.98028 36033 ft 445 kts 243°
2026-05-09 12:29 44.76522 -64.05691 36032 ft 446 kts 243°
2026-05-09 12:29 44.74061 -64.12044 36029 ft 445 kts 243°
2026-05-09 12:30 44.70612 -64.20922 36043 ft 445 kts 243°
2026-05-09 12:30 44.66637 -64.31121 36036 ft 445 kts 243°
2026-05-09 12:31 44.62173 -64.42530 36023 ft 444 kts 243°
2026-05-09 12:32 44.59198 -64.50108 36035 ft 443 kts 243°
2026-05-09 12:32 44.56222 -64.57667 36039 ft 442 kts 243°
2026-05-09 12:33 44.53247 -64.65205 36045 ft 442 kts 243°
2026-05-09 12:33 44.50265 -64.72739 36039 ft 442 kts 243°
2026-05-09 12:34 44.47281 -64.80257 36048 ft 441 kts 243°
2026-05-09 12:34 44.44298 -64.87754 36057 ft 441 kts 243°
2026-05-09 12:35 44.41333 -64.95186 36057 ft 440 kts 243°
2026-05-09 12:35 44.38345 -65.02657 36062 ft 440 kts 243°
2026-05-09 12:36 44.35354 -65.10113 36057 ft 439 kts 243°
2026-05-09 12:36 44.32365 -65.17546 36064 ft 438 kts 243°
2026-05-09 12:37 44.29375 -65.24959 36069 ft 438 kts 243°
2026-05-09 12:37 44.26382 -65.32364 36067 ft 438 kts 243°
2026-05-09 12:38 44.23384 -65.39761 36056 ft 438 kts 243°
2026-05-09 12:38 44.20384 -65.47143 36067 ft 437 kts 243°
2026-05-09 12:39 44.17381 -65.54513 36073 ft 437 kts 243°